User: anonymous   Login
Location: Newark
(52.2090°N, 4.1550°W)
Time: 09:00:51
(UTC+00:00)
Language:

Vanguard 2 Rocket - Orbit

View from above orbital plane
View from above orbital plane
View from above satellite
View from above satellite

Ground track
Ground track

The orbit data is extracted from the following two-line orbital elements,

1    12U 59001B   19259.12506450  .00000179  00000-0  11283-3 0  9992
2    12  32.8967 234.2575 1666735  68.4179 308.5416 11.44299542491010
Epoch (UTC): 16 September 2019 03:00:05
Eccentricity: 0.1666735
inclination: 32.8967°
perigee height: 554 km
apogee height: 3327 km
right ascension of ascending node: 234.2575°
argument of perigee: 68.4179°
revolutions per day: 11.44299542
mean anomaly at epoch: 308.5416°
orbit number at epoch: 49101

The dashed part of the orbit path shows where the satellite is in the earth's shadow,  

DLR